EW6193 Weather Reports


Display with metric or nautical units.
time (UTC)temp
F
wind
direction
speed
MPH
gust
MPH
rain 1hr
in
rain 24hr
in
rain mn
in
humidity
%
barometer
mb
20260902203056 59 301 5.0 11.0 0.00 0.00 0.00 66 1011.0
20260902201552 57 259 5.0 10.0 0.00 0.00 0.00 68 1011.0
20260902200048 56 302 5.0 8.0 0.00 0.00 0.00 69 1011.1
20260902194543 55 283 4.0 8.0 0.00 0.00 0.00 71 1010.9
20260902193040 54 267 2.0 5.0 0.00 0.00 0.00 73 1010.8
20260902191541 54 300 2.0 6.0 0.00 0.00 0.00 73 1010.6
20260902190036 0 0.0 0.0 0.00 0.00 0.00 1010.4
20260902184535 0 0.0 0.0 0.00 0.00 0.00 1010.5
20260902183049 0 0.0 0.0 0.00 0.00 0.00 1010.6
20260902181522 0 0.0 0.0 0.00 0.00 0.00 1010.5
20260902180018 0 0.0 0.0 0.00 0.00 0.00 1010.6
20260902174521 0 0.0 0.0 0.00 0.00 0.00 1010.6
20260902173016 0 0.0 0.0 0.00 0.00 0.00 1010.6
20260902171505 0 0.0 0.0 0.00 0.00 0.00 1010.5
20260902170100 0 0.0 0.0 0.00 0.00 0.00 1010.5
20260902164603 0 0.0 0.0 0.00 0.00 0.00 1010.3
20260902163052 0 0.0 0.0 0.00 0.00 0.00 1010.3
20260902161550 54 265 5.0 10.0 0.00 0.00 0.00 69 1010.2
20260902160048 55 283 5.0 11.0 0.00 0.00 0.00 68 1010.0
20260902154544 54 283 6.0 10.0 0.00 0.00 0.00 69 1009.9
20260902153052 54 271 5.0 10.0 0.00 0.00 0.00 69 1009.9
20260902151539 53 278 3.0 5.0 0.00 0.00 0.00 73 1010.2
20260902150037 52 285 0.0 1.0 0.00 0.00 0.00 72 1010.2
20260902144537 53 269 2.0 6.0 0.00 0.00 0.00 71 1010.2
20260902143032 54 299 2.0 7.0 0.00 0.00 0.00 71 1010.2
20260902141527 54 275 4.0 8.0 0.00 0.00 0.00 71 1010.2
20260902140025 53 263 5.0 9.0 0.00 0.00 0.00 72 1010.4
20260902134523 53 265 4.0 8.0 0.00 0.00 0.00 72 1010.4
20260902133020 53 276 5.0 10.0 0.00 0.00 0.00 72 1010.5
20260902131516 53 262 5.0 8.0 0.00 0.00 0.00 72 1010.3
20260902130013 53 264 5.0 9.0 0.00 0.00 0.00 73 1010.4
20260902124510 52 252 3.0 5.0 0.00 0.00 0.00 74 1010.6
20260902123008 52 283 3.0 6.0 0.00 0.00 0.00 73 1010.5
20260902121504 53 267 3.0 6.0 0.00 0.00 0.00 72 1010.6
20260902114559 52 273 1.0 3.0 0.00 0.00 0.00 73 1010.7
20260902113059 51 300 2.0 3.0 0.00 0.00 0.00 75 1010.7
20260902111602 53 264 2.0 5.0 0.00 0.00 0.00 73 1010.6
20260902110104 52 270 2.0 4.0 0.00 0.00 0.00 74 1010.9
20260902104614 53 314 1.0 6.0 0.00 0.00 0.00 75 1011.0
20260902103110 52 268 1.0 3.0 0.00 0.00 0.00 77 1011.3
20260902101605 52 281 0.0 1.0 0.00 0.00 0.00 78 1011.6
20260902100054 52 179 0.0 2.0 0.00 0.00 0.00 78 1011.2
20260902094552 52 271 3.0 6.0 0.00 0.00 0.00 79 1011.0
20260902093051 51 277 2.0 5.0 0.00 0.00 0.00 80 1011.0
20260902091550 51 287 1.0 2.0 0.00 0.00 0.00 79 1011.0
20260902090051 52 283 0.0 2.0 0.00 0.00 0.00 78 1010.8
20260902084555 52 259 2.0 5.0 0.00 0.00 0.00 78 1010.5
20260902083053 51 278 0.0 2.0 0.00 0.00 0.00 79 1010.6
20260902081547 51 274 0.0 0.0 0.00 0.00 0.00 76 1010.7
20260902080046 52 274 0.0 1.0 0.00 0.00 0.00 74 1010.5
20260902074544 53 291 0.0 1.0 0.00 0.00 0.00 73 1010.3
20260902073042 53 272 0.0 2.0 0.00 0.00 0.00 71 1010.3
20260902071541 54 290 1.0 3.0 0.00 0.00 0.00 69 1010.3
20260902070039 55 280 2.0 4.0 0.00 0.00 0.00 67 1010.3
20260902064539 56 269 1.0 3.0 0.00 0.00 0.00 64 1010.6
20260902063052 56 271 1.0 4.0 0.00 0.00 0.00 65 1010.6
20260902061558 57 254 3.0 6.0 0.00 0.00 0.00 63 1010.2
20260902060041 58 281 4.0 8.0 0.00 0.00 0.00 61 1010.0
20260902054536 59 257 5.0 9.0 0.00 0.00 0.00 59 1009.7
20260902053039 60 252 5.0 8.0 0.00 0.00 0.00 54 1009.7
20260902051552 62 264 3.0 7.0 0.00 0.00 0.00 51 1009.2
20260902050036 63 310 3.0 9.0 0.00 0.00 0.00 50 1009.0
20260902044559 63 269 7.0 11.0 0.00 0.00 0.00 51 1009.1
20260902043034 63 267 6.0 10.0 0.00 0.00 0.00 48 1009.0
20260902041534 63 274 3.0 8.0 0.00 0.00 0.00 48 1008.9
20260902040029 63 306 4.0 10.0 0.00 0.00 0.00 47 1009.0
20260902034528 63 267 3.0 8.0 0.00 0.00 0.00 49 1009.1
20260902033024 61 289 3.0 8.0 0.00 0.00 0.00 52 1009.2
20260902031538 60 285 5.0 8.0 0.00 0.00 0.00 51 1009.2
20260902030019 60 274 4.0 8.0 0.00 0.00 0.00 51 1009.1
20260902024518 60 283 4.0 8.0 0.00 0.00 0.00 52 1008.8
20260902023022 60 276 7.0 12.0 0.00 0.00 0.00 50 1008.8
20260902021514 60 285 8.0 12.0 0.00 0.00 0.00 50 1008.8
20260902020014 59 245 8.0 14.0 0.00 0.00 0.00 51 1008.8
20260902014515 59 264 6.0 12.0 0.00 0.00 0.00 52 1008.8
20260902013010 59 303 8.0 14.0 0.00 0.00 0.00 51 1008.9
20260902011516 59 254 5.0 10.0 0.00 0.00 0.00 53 1009.2
20260902010006 59 278 7.0 14.0 0.00 0.00 0.00 53 1009.4
20260902004506 60 275 9.0 16.0 0.00 0.00 0.00 52 1009.8
20260902003004 59 273 8.0 13.0 0.00 0.00 0.00 52 1009.9
20260902001506 59 248 6.0 14.0 0.00 0.00 0.00 54 1009.9
20260902000007 59 265 7.0 15.0 0.00 0.00 0.00 54 1010.0
20260901234502 59 286 8.0 15.0 0.00 0.00 0.00 54 1009.9
20260901233001 59 274 9.0 14.0 0.00 0.00 0.00 54 1009.8
20260901231614 59 274 7.0 16.0 0.00 0.00 0.00 53 1010.1
20260901230109 58 293 9.0 19.0 0.00 0.00 0.00 53 1010.1
20260901224559 58 258 8.0 15.0 0.00 0.00 0.00 54 1010.3
20260901223059 57 265 5.0 12.0 0.00 0.00 0.00 54 1010.2
20260901221610 57 349 8.0 17.0 0.00 0.00 0.00 53 1010.3
20260901220058 58 283 9.0 19.0 0.00 0.00 0.00 52 1010.4
20260901214556 58 254 9.0 17.0 0.00 0.00 0.00 51 1010.3
20260901213056 59 258 8.0 15.0 0.00 0.00 0.00 50 1010.6
20260901211552 59 285 5.0 11.0 0.00 0.00 0.00 51 1010.6
20260901210050 58 266 4.0 12.0 0.00 0.00 0.00 52 1010.8
20260901204546 57 275 2.0 7.0 0.00 0.00 0.00 55 1010.9